Location: Ellingshausen
(50.5460°N, 10.4723°E)
Time: 06:25:11
(UTC+00:00)

CORIOLIS - Pass Details

Date: 18 January 2026
Orbit: 816 x 836 km, 98.7° (Epoch: 18 February)

Event Time Altitude Azimuth Distance (km) Brightness Sun altitude
Rises 06:21:14 0° 12° (NNE) 3,399 7.2 -7.8°
Reaches altitude 10° 06:23:38 10° 8° (N) 2,461 6.5 -7.4°
Maximum altitude 06:28:57 56° 292° (WNW) 994 4.3 -6.6°
Drops below altitude 10° 06:34:13 10° 216° (SW) 2,438 6.5 -5.9°
Sets 06:36:35 0° 212° (SSW) 3,366 7.3 -5.5°
